Regional Weather Roundup
Issued by NWS Lake Charles, LA

Home | Current Version | Previous Version | Text Only | Print | Product List | Glossary On
Versions: 1 2 3 4 5 6 7 8 9 10 11 12 13 14 15 16 17 18 19 20 21 22 23 24 25 26 27
000
ASUS44 KLCH 201210
RWRLCH
REGIONAL WEATHER ROUNDUP
NATIONAL WEATHER SERVICE LAKE CHARLES LA
600 AM CST TUE FEB 20 2018

Note: "fair" indicates few or no clouds below 12,000 feet with no
significant weather and/or obstructions to visibility.


ACROSS SOUTHEAST TEXAS

CITY           SKY/WX    TMP DP  RH WIND       PRES   REMARKS
BEAUMONT       CLOUDY    70  68  93 SE16      30.02R
BEAUMONT CITY  CLOUDY    71  68  90 SE10G20   30.03R
ORANGE         CLOUDY    71  71 100 S10G16    30.06R
JASPER         MOCLDY    71  67  89 SE3       30.05S
$$

ACROSS CENTRAL LOUISIANA

CITY           SKY/WX    TMP DP  RH WIND       PRES   REMARKS
LEESVILLE      CLOUDY    70  67  90 S13       30.05R
FULLERTON      CLOUDY    76  69  79 MISG      30.03R
ALEXANDRIA INT CLOUDY    69  67  93 SE13      30.05R
ESLER FIELD    FAIR      68  67  96 S8        30.07R
DERIDDER       CLOUDY    71  69  95 SE9G16    30.07R
OAKDALE        CLOUDY    71  68  91 SE6       30.06R
OPELOUSAS      CLOUDY    70  68  93 SE10G18   30.08S
$$

ACROSS SOUTHWEST AND SOUTH CENTRAL LOUISIANA

CITY           SKY/WX    TMP DP  RH WIND       PRES   REMARKS
SULPHUR        CLOUDY    72  71  97 SE10      30.06R
LAKE CHARLES   CLOUDY    72  70  93 SE13      30.04S
CHENNAULT INT  CLOUDY    70  68  94 SE13      30.05S
CAMERON PHI    FOG       68  68 100 SE13      30.05R VSB 1/4
DEQUINCY       NOT AVBL
JENNINGS       FAIR      69  68  95 SE6       30.07R
LAFAYETTE      CLOUDY    70  69  97 SE3       30.08R
NEW IBERIA     FAIR      68  66  93 SE5       30.09R
ABBEVILLE      CLOUDY    69  69 100 SE6       30.09R
PATTERSON      LGT RAIN  72  70  94 S8        30.09R
SALT POINT       N/A     69  68  96 SE8       30.07R
$$

SELECTED SITES ACROSS THE REGION

CITY           SKY/WX    TMP DP  RH WIND       PRES   REMARKS
HOUSTON BUSH   MOCLDY    71  67  87 SE20      29.97R
HOUSTON HOBBY  CLOUDY    71  69  93 SE14G20   29.97R
GALVESTON      FOG       67  67 100 SE15      29.99R VSB 1/4
COLLEGE STAT   CLOUDY    70  66  87 S14       29.96R
CONROE         CLOUDY    69  68  96 SE12      29.98R
HUNTSVILLE     CLOUDY    70  64  81 SE10G17   29.97R
LUFKIN         CLOUDY    69  64  84 S9        30.00R
SHREVEPORT     CLOUDY    69  65  86 S14       30.00R
MONROE         CLOUDY    68  66  93 S6        30.07R
NATCHEZ MS     CLOUDY    70  66  87 S14       30.11R
BATON ROUGE    CLOUDY    67  65  93 E8        30.10S
N.O. INTL ARPT FAIR      70  69  97 SE12      30.12R
SLIDELL        CLOUDY    70  68  93 SE13G18   30.14R
$$

MARINE REPORTS

STATION/POSITION TIME  SKY/WX   TEMP    WIND        PRES    VSBY
                                AIR SEA DIR/SP/G
                 (UTC)          (F)     (DEG/KT/KT) (MB)    (MI)
BUOY 30 S HIGH I 1050            64 60  130/ 12/ 12 1015.4
WVE H/P(F/S)=  4/ 7

SEA RIM ST PARK  1200            65     120/  9/ 12 1017.1R
PORT ARTHUR      1148            68 63  140/  8/ 11 1017.1R
SABINE PASS N    1142            66 67  130/ 12/ 14 1018.3R
TEXAS POINT      NOT AVBL
CALCASIEU PASS   1148            67 65  150/ 10/ 13 1016.1R
LK CHARLES BEACH 1148            72 65              1016.7F
MARSH ISLAND     1100            69                   N/A
FRESH WATER LOCK 1148            69 71  120/  7/  9 1018.4R
AMERADA PASS     1148            71 53  130/  6/ 10 1018.6R
$$




USA.gov is the U.S. government's official web portal to all federal, state and local government web resources and services.